Flag for Japan Weather past 2 weeks in Hiroshima, Japan

Now
55 °F

Passing clouds.


Feels Like: 53 °F
Forecast: 46 / 73 °F
Wind: 8 mph from Northwest

Location: Iwakuni Marine Corps Air Station

Current Time: Oct 24, 2014 at 3:08:13 AM

Latest Report: Oct 24, 2014 at 1:55 AM


Visibility: N/A

Pressure: 30.11 "Hg

Humidity: 77%

Dew point: 48 °F

Location of HiroshimaLocation

Historic Weather in Hiroshima — Graph

°F

Hiroshima temperature yesterday

Maximum temperature yesterday: 70 °F (at 12:55 PM)
Minimum temperature yesterday: 56 °F (at 11:55 PM)
Average temperature yesterday: 63 °F

Past Weeks' High & Low Weather Summary

 TemperatureHumidityPressure
High80 °F (Oct 10, 12:55 PM)93% (Oct 13, 10:55 AM)30.31 "Hg (Oct 13, 10:55 AM)
Low52 °F (Oct 16, 4:55 AM)29% (Oct 23, 4:55 PM)29.18 "Hg (Oct 13, 2:55 PM)
Average66 °F62%30.04 "Hg
* Reported Oct 9 2:55 AM — Oct 24 1:55 AM, Hiroshima, Weather by CustomWeather, © 2014

Note: Actual official high and low records may vary slightly from our data, if they occured in-between our weather recording intervals... More about our weather records

Advertising

Hiroshima weather history for previous 24 hours

 ConditionsComfort  
Time TempWeatherWind HumidityBarometerVisibility
1:55 AM
Oct 24
55 °FPassing clouds.8 mph77%30.11 "HgN/A
12:55 AM56 °FPassing clouds.7 mph77%30.11 "HgN/A
11:55 PM
Oct 23
56 °FPassing clouds.8 mph77%30.11 "HgN/A
10:55 PM58 °FPassing clouds.8 mph72%30.12 "HgN/A
9:55 PM58 °FPassing clouds.8 mph75%30.12 "HgN/A
8:55 PM60 °FPassing clouds.7 mph69%30.11 "HgN/A
7:55 PM61 °FPassing clouds.7 mph65%30.10 "HgN/A
6:55 PM61 °FPassing clouds.7 mph67%30.08 "HgN/A
5:55 PM65 °FPassing clouds.3 mph54%30.06 "HgN/A
4:55 PM67 °FPassing clouds.3 mph29%30.05 "HgN/A
3:55 PM69 °FPassing clouds.5 mph45%30.04 "HgN/A
2:55 PM70 °FPassing clouds.8 mph39%30.04 "HgN/A
1:55 PM70 °FPassing clouds.12 mph39%30.04 "HgN/A
12:55 PM70 °FPassing clouds.12 mph41%30.06 "HgN/A
11:55 AM68 °FPassing clouds.10 mph42%30.09 "HgN/A
10:55 AM67 °FPassing clouds.13 mph44%30.11 "HgN/A
9:55 AM66 °FPassing clouds.15 mph47%30.11 "HgN/A
8:55 AM64 °FPassing clouds.15 mph49%30.11 "HgN/A
7:55 AM62 °FPassing clouds.12 mph52%30.11 "HgN/A
6:55 AM58 °FPassing clouds.8 mph60%30.09 "HgN/A
5:55 AM57 °FPassing clouds.8 mph64%30.07 "HgN/A
4:55 AM57 °FPassing clouds.9 mph67%30.05 "HgN/A
3:55 AM60 °FPassing clouds.7 mph58%30.04 "HgN/A
Weather by CustomWeather, © 2014

See weather overviewHow to use our weather pages